Regional Weather Roundup
Issued by NWS

Home | Current Version | Previous Version | Graphics & Text | Print | Product List | Glossary On
Versions: 1 2 3 4 5 6 7 8 9 10 11 12 13 14 15 16 17 18 19 20 21 22 23 24 25 26 27 28 29 30 31 32 33 34 35 36 37 38 39 40 41 42 43 44 45 46 47 48 49 50
000
ASUS43 KDMX 260306
RWRIA

WEATHER ROUNDUP FOR IOWA
NATIONAL WEATHER SERVICE DES MOINES IA
1000 PM CDT THU MAY 25 2017

NOTE: "FAIR" INDICATES FEW OR NO CLOUDS BELOW 12,000 FEET WITH NO
SIGNIFICANT WEATHER AND/OR OBSTRUCTIONS TO VISIBILITY.

* - THESE STATIONS ARE NOT NWS STATIONS...THUS NOT UNDER NWS
QUALITY CONTROL.  THEY ALSO DO NOT REPORT WEATHER SUCH
AS PRECIPITATION OR FOG.

IAZ001>003-012>014-020>022-031>034-043>046-260400-
   NORTHWEST IOWA

CITY           SKY/WX    TMP DP  RH WIND       PRES   REMARKS
CARROLL *      CLOUDY    64  55  72 S7        29.68R
CHEROKEE *     CLOUDY    64  53  67 SE7       29.65R
DENISON *      CLOUDY    64  54  68 SE7       29.68R
LE MARS *      MOCLDY    66  52  59 SE6       29.64R
ORANGE CITY *  MOCLDY    64  54  68 SE5       29.65R
SHELDON *      CLOUDY    63  50  63 SE10      29.63R
SIOUX CITY     CLEAR     64  55  72 SE9       29.62R
SPENCER        MOCLDY    62  53  72 SE9       29.66R
STORM LAKE *   PTCLDY    64  52  63 SE13      29.67R
$$

IAZ055>058-069>071-079>083-090>094-260400-
   SOUTHWEST IOWA

CITY           SKY/WX    TMP DP  RH WIND       PRES   REMARKS
ATLANTIC *     CLOUDY    68  54  60 S3        29.68R
AUDUBON *      CLOUDY    57  54  88 CALM      29.70R
CLARINDA *     CLOUDY    66  55  68 SE3       29.70R
COUNCIL BLFS * CLOUDY    66  55  68 SE8       29.65R
CRESTON *      PTCLDY    63  54  72 SE6       29.72R
HARLAN  *      CLOUDY    68  54  60 SE8       29.70R
LAMONI         CLOUDY    64  52  64 E3        29.69R
RED OAK *      CLOUDY    68  55  64 SE10      29.67R
SHENANDOAH *   CLOUDY    68  55  64 SE10      29.66R
$$

IAZ047>049-059>061-072>074-084-260400-
   CENTRAL IOWA

CITY           SKY/WX    TMP DP  RH WIND       PRES   REMARKS
AMES           CLOUDY    64  52  64 SW3       29.69R
ANKENY *       CLOUDY    66  52  59 SE7G15    29.68R
BOONE *        CLOUDY    64  54  68 CALM      29.69R
CHARITON *     MOCLDY    64  52  63 S8        29.69R
DES MOINES     CLOUDY    68  51  54 S7        29.68R
GRINNELL*      CLOUDY    65  50  58 S8        29.71R
KNOXVILLE *    CLOUDY    66  50  55 SE10      29.67R
MARSHALLTOWN   PTCLDY    64  50  60 SE9       29.67R
NEWTON *       MOCLDY    64  50  59 SE12      29.65F
PELLA *        MOCLDY    66  51  57 SE5       29.71R
PERRY *          N/A     65  50  58 W5        29.70R
$$

IAZ004>006-015-016-023>025-035-036-260400-
   NORTH CENTRAL IOWA

CITY           SKY/WX    TMP DP  RH WIND       PRES   REMARKS
ALGONA *       PTCLDY    63  54  72 SE7       29.69S
CLARION *      CLOUDY    61  55  82 E6        29.71S
ESTHERVILLE    PTCLDY    58  53  84 SE12      29.66R
FORT DODGE *   CLOUDY    61  52  72 CALM      29.71R
MASON CITY     PTCLDY    59  55  87 W3        29.73R
FOREST CITY *    N/A     59  46  63 CALM      29.72R
WEBSTER CITY * CLOUDY    63  54  72 SE6       29.68R
IOWA FALLS *     N/A     63  52  67 CALM      29.72R
$$

IAZ007>011-017>019-026>030-037>042-050>054-066-260400-
   NORTHEAST IOWA

CITY           SKY/WX    TMP DP  RH WIND       PRES   REMARKS
CEDAR RAPIDS   PTCLDY    63  52  67 SE6       29.70S
CHARLES CITY * CLOUDY    64  52  63 SE6       29.71R
CLINTON *      CLEAR     61  54  77 SE6       29.76R
DECORAH *      CLOUDY    63  54  72 SE6       29.70F
DUBUQUE        CLEAR     59  53  80 SE5       29.75R
MONTICELLO *   PTCLDY    63  55  77 SE10      29.73R
OELWEIN *      CLOUDY    64  52  63 SE12      29.69F
WATERLOO       CLOUDY    65  49  56 SE7       29.68R
$$

IAZ064-065-067-068-078-260400-
   EAST CENTRAL IOWA

CITY           SKY/WX    TMP DP  RH WIND       PRES   REMARKS
DAVENPORT      CLEAR     62  55  77 SE6       29.76R
IOWA CITY      CLEAR     62  53  72 SE6       29.72R
MT. PLEASANT * CLOUDY    61  52  72 SE6       29.74S
MUSCATINE *    CLOUDY    61  54  77 CALM      29.75R
QUAD CITIES    CLEAR     61  54  77 E5        29.74R
$$

IAZ062-063-075>077-085>089-095>099-260400-
   SOUTHEAST IOWA

CITY           SKY/WX    TMP DP  RH WIND       PRES   REMARKS
BURLINGTON     CLOUDY    62  55  77 CALM      29.75R
FAIRFIELD *    CLOUDY    64  52  63 SE12      29.69F
FORT MADISON * PTCLDY    63  54  72 SE3       29.76R
KEOKUK *       CLEAR     59  54  82 CALM      29.75R
OSKALOOSA *      N/A     65  49  55 SE8       29.70R
CENTERVILLE *    N/A     63  54  72 CALM      29.73R
OTTUMWA        CLOUDY    65  50  58 SE6       29.70R
WASHINGTON *   PTCLDY    63  52  67 SE12      29.72F
$$

ABBREVIATIONS USED IN REMARKS
   TC - TEMPERATURES IN CELSIUS
  WCI - WIND CHILL INDEX
   HX - HEAT INDEX
  VSB - VISIBILITY
$$




USA.gov is the U.S. government's official web portal to all federal, state and local government web resources and services.